Snowfall_Accumulation
0.0 0.4 0.7 0.0 0.0 0.0 1.0 2.1 1.8 0.0 0.0 0.2 0.0 0.3 0.0 0.0 0.0 0.0 0.0 0.0 0.0 0.0 0.0 0.0 0.0 0.0 0.0 0.0 0.0 0.0 0.0 0.0 0.0 0.0 0.0 0.0 0.0 0.0 0.0 0.0 0.0 0.0 0.0 0.0
0.0 0.7 0.0 0.0 0.0 0.8 0.8 3.0 3.4 0.6 0.0 0.0 0.6 0.4 0.0 0.0 0.0 0.0 0.0 0.0 0.0 0.0 0.0 0.0 0.0 0.0 0.0 0.0 0.0 0.0 0.0 0.0 0.0 0.0 0.0 0.0 0.0 0.0 0.0 0.0 0.0 0.0 0.0 0.0
1.2 0.0 0.0 0.0 0.0 1.5 0.8 3.4 2.5 2.4 0.5 0.2 0.6 1.3 0.0 0.0 0.0 0.0 0.0 0.0 0.0 0.0 0.0 0.0 0.0 0.0 0.0 0.0 0.0 0.0 0.0 0.0 0.0 0.0 0.0 0.0 0.0 0.0 0.0 0.0 0.0 0.0 0.0 0.0
0.9 0.0 0.0 0.1 0.2 0.1 3.5 0.0 0.0 0.7 4.5 9.8 0.1 14.8 0.1 0.0 0.0 0.0 0.0 0.0 0.0 0.0 0.0 0.0 0.0 0.0 0.0 0.0 0.0 0.0 0.0 0.0 0.0 0.0 0.0 0.0 0.0 0.0 0.0 0.0 0.0 0.0 0.0 0.0
4.5 0.0 0.0 0.5 0.0 0.0 0.8 0.0 0.1 1.0 3.7 7.8 3.6 18.0 1.7 0.0 0.0 0.0 0.0 0.0 0.0 0.0 0.0 0.0 0.0 0.0 0.0 0.0 0.0 0.0 0.0 0.0 0.0 0.0 0.0 0.0 0.0 0.0 0.0 0.0 0.0 0.0 0.0 0.0
0.6 0.0 0.0 0.7 0.4 0.1 0.0 0.2 0.1 0.4 3.4 29.9 3.0 6.7 2.3 0.8 1.1 0.0 0.0 0.0 0.0 0.0 0.0 0.0 0.0 0.0 0.0 0.0 0.0 0.0 0.0 0.0 0.0 0.0 0.0 0.0 0.0 0.0 0.0 0.0 0.0 0.0 0.0 0.0
4.7 2.1 0.3 0.8 1.6 0.0 2.5 9.4 29.2 27.0 32.6 10.3 0.7 4.5 6.3 0.6 0.1 0.0 0.0 0.0 0.0 0.0 0.0 0.0 0.0 0.0 0.0 0.0 0.0 0.0 0.0 0.1 0.0 0.0 0.0 0.0 0.0 0.0 0.0 0.0 0.0 0.0 0.0 0.0
10.0 11.2 3.3 0.8 5.2 9.3 1.6 10.4 25.9 21.2 7.0 1.9 0.0 6.9 5.8 0.2 0.0 0.0 0.0 0.0 0.0 0.0 0.0 0.0 0.0 0.0 0.0 0.0 0.0 0.0 0.0 0.1 0.0 0.0 0.0 0.0 0.0 0.0 0.0 0.0 0.0 0.0 0.0 0.0
9.5 2.9 0.2 0.6 0.6 4.3 4.2 15.4 1.6 16.5 3.2 8.1 1.4 2.0 1.3 0.1 0.0 0.0 0.0 0.0 0.0 0.0 0.0 0.0 0.0 0.0 0.0 0.0 0.0 0.0 0.0 0.0 0.0 0.0 0.0 0.0 0.0 0.0 0.0 0.0 0.0 0.0 0.0 0.0
6.3 8.5 0.1 0.8 0.9 1.6 6.8 5.5 12.1 25.6 28.0 6.9 1.2 4.7 7.3 1.8 0.8 0.0 0.0 0.5 0.3 0.1 0.0 0.1 0.0 0.0 0.0 0.0 0.0 0.0 0.0 0.0 0.0 0.0 0.0 0.0 0.0 0.0 0.0 0.0 0.0 0.0 0.0 0.0
5.4 13.6 0.6 0.6 5.3 13.3 8.4 26.2 13.6 11.6 8.9 19.1 9.7 9.5 9.5 7.7 6.3 6.3 3.0 2.3 2.3 2.0 1.1 0.2 0.0 0.0 0.0 0.0 0.0 0.0 0.0 0.0 0.0 0.0 0.0 0.0 0.0 0.0 0.0 0.0 0.0 0.0 0.0 0.0
4.9 13.9 12.6 2.5 3.9 6.3 5.1 16.2 21.1 22.6 11.6 13.7 18.9 14.1 5.4 9.8 10.9 13.1 10.7 6.9 4.1 3.5 1.6 0.7 0.2 0.1 0.0 0.1 0.1 0.0 0.0 0.0 0.0 0.0 0.0 0.0 0.0 0.0 0.0 0.0 0.0 0.0 0.0 0.0
8.5 16.2 14.9 9.9 5.1 3.0 10.8 11.0 14.4 12.6 14.4 21.8 33.3 25.1 7.7 8.9 10.5 13.0 13.0 10.3 8.7 5.4 3.3 1.7 0.4 0.1 0.7 0.1 0.1 0.1 0.1 0.0 0.0 0.0 0.0 0.0 0.0 0.0 0.0 0.0 0.0 0.0 0.0 0.0
2.4 8.0 13.8 21.0 16.2 14.9 17.8 9.0 10.4 18.9 43.0 18.3 26.9 27.6 17.1 14.9 12.5 12.9 10.8 12.3 11.3 9.4 8.3 4.4 3.5 1.5 0.5 0.5 0.3 0.1 0.1 0.0 0.0 0.0 0.1 0.0 0.0 0.0 0.0 0.0 0.0 0.0 0.0 0.0
2.3 11.8 2.2 1.6 2.5 8.5 13.1 15.5 13.3 25.8 18.4 32.0 29.7 26.0 28.5 28.3 32.0 27.1 23.6 19.0 13.1 11.6 12.1 7.8 4.1 2.3 0.9 0.6 0.4 0.2 0.2 0.1 0.1 0.1 0.1 0.1 0.0 0.0 0.0 0.0 0.0 0.0 0.0 0.0
2.0 11.5 7.9 6.5 2.7 6.7 12.3 7.9 9.4 13.2 15.3 19.3 17.4 17.2 19.5 23.3 19.8 20.7 18.4 16.0 16.8 20.3 17.6 9.8 6.3 2.4 1.3 1.3 1.4 1.0 0.5 0.2 0.3 0.8 0.3 0.0 0.1 0.1 0.0 0.1 0.0 0.0 0.1 0.0
5.5 6.5 11.8 9.1 2.0 5.1 17.5 20.3 14.7 15.2 19.6 24.6 35.5 34.2 25.0 24.1 22.4 25.1 24.7 27.2 27.6 30.7 24.5 17.3 9.7 5.9 3.2 2.2 2.2 2.3 1.0 0.9 0.9 0.8 0.3 0.2 0.1 0.2 0.0 0.0 0.0 0.1 0.1 0.0
1.4 6.1 10.1 10.6 5.0 23.8 13.0 6.1 9.8 15.1 17.9 18.3 19.9 24.2 25.3 23.3 15.8 17.0 22.3 33.6 34.6 38.2 31.6 22.9 16.3 8.9 3.5 1.7 1.5 1.5 1.3 1.8 1.4 1.0 0.3 0.4 0.4 0.5 0.1 0.3 0.5 0.3 0.1 0.6
0.8 2.8 9.5 11.6 6.1 2.3 1.7 1.7 4.6 12.8 17.1 10.8 14.3 13.0 12.8 9.2 6.6 7.1 6.8 15.5 28.2 38.8 36.9 30.7 25.0 14.8 7.2 3.5 2.4 2.5 1.5 1.2 0.8 1.1 1.3 0.6 1.0 0.9 0.9 2.9 2.3 5.0 2.6 7.4
0.1 1.2 8.2 8.4 12.7 6.0 3.0 0.2 0.3 2.7 16.6 2.6 9.8 12.5 13.1 11.0 14.2 12.1 11.3 17.9 23.8 30.3 38.1 43.1 27.9 12.6 6.5 3.1 2.4 2.1 1.6 1.5 0.6 0.7 0.9 0.8 0.4 0.5 1.9 4.8 4.5 3.9 4.3 5.0
4.3 5.6 9.2 5.1 12.9 2.4 0.6 0.5 0.7 4.7 8.5 5.2 9.0 12.6 15.4 21.9 24.9 17.8 14.6 15.8 19.2 26.3 37.2 37.1 24.8 12.4 6.1 4.2 4.2 1.4 1.9 1.8 1.4 2.0 1.8 1.3 0.9 1.4 1.1 4.2 3.3 2.4 2.0 1.7
7.0 4.8 3.5 4.4 12.5 5.3 0.1 0.0 2.2 4.2 0.9 4.0 6.6 9.7 14.4 9.9 8.2 8.2 9.6 12.6 18.6 26.1 39.3 45.1 35.3 21.6 13.8 9.8 6.5 5.3 5.6 2.6 1.6 2.7 1.8 3.1 2.2 1.3 1.0 0.3 0.3 1.9 2.2 4.1
11.6 6.5 5.2 2.0 0.7 0.4 0.2 0.5 0.4 0.2 1.9 2.3 8.0 5.5 8.1 6.2 5.2 4.6 7.2 9.0 15.0 22.4 38.9 52.3 49.0 36.8 16.8 11.1 8.2 9.3 6.2 5.1 5.4 4.0 5.2 7.1 6.2 5.4 4.0 2.9 3.6 6.2 5.0 5.4
1.4 0.7 1.8 0.9 0.7 1.1 0.9 0.0 0.0 0.2 1.2 1.9 4.0 4.5 3.1 5.0 2.7 2.5 2.8 6.3 11.5 16.7 34.8 49.4 44.7 34.0 19.6 17.2 15.3 9.5 6.6 4.8 4.9 7.2 8.9 8.0 8.5 7.7 8.8 7.6 6.8 7.0 8.9 9.1
2.2 0.3 0.4 0.5 2.4 1.7 1.0 0.2 0.3 0.6 1.1 0.8 0.2 1.2 3.0 3.4 1.3 2.7 2.3 4.1 9.0 14.4 25.0 41.9 49.7 44.0 31.7 23.4 23.7 15.3 11.0 6.4 7.9 8.0 9.6 9.9 9.7 9.7 9.3 8.5 7.9 8.2 6.7 5.6
2.5 3.2 3.7 2.2 0.7 2.4 0.6 0.4 0.1 1.3 1.1 1.2 2.4 1.5 1.4 2.8 3.3 2.3 2.1 2.5 6.5 12.4 19.8 29.9 42.5 43.4 40.7 31.6 25.1 20.7 12.4 7.6 8.8 9.4 8.2 8.1 8.9 9.0 7.8 7.5 8.2 3.4 3.3 3.6